Time,TemperatureF,DewpointF,PressureIn,WindDirection,WindDirectionDegrees,WindSpeedMPH,WindSpeedGustMPH,Humidity,HourlyPrecipIn,Conditions,Clouds,dailyrainin,SoftwareType,DateUTC
2013-04-10 17:23:00,41.5,40.2,29.87,North,355,12.7,17.0,95,0.00,CLR,,0.24,WeatherDisplay:10.37,2013-04-10 22:23:00,
2013-04-10 17:24:00,41.5,40.2,29.87,NNE,24,12.5,17.3,95,0.00,CLR,,0.24,WeatherDisplay:10.37,2013-04-10 22:24:00,
2013-04-10 17:25:00,41.5,40.2,29.87,North,355,12.2,16.1,95,0.00,CLR,,0.24,WeatherDisplay:10.37,2013-04-10 22:25:00,
2013-04-10 17:30:00,41.4,40.1,29.88,North,355,13.6,17.3,95,0.00,CLR,,0.24,WeatherDisplay:10.37,2013-04-10 22:30:00,
2013-04-10 17:35:00,41.4,40.1,29.86,North,5,13.1,18.4,95,0.00,CLR,,0.24,WeatherDisplay:10.37,2013-04-10 22:35:00,
2013-04-10 17:40:00,41.3,40.0,29.85,NNE,29,15.4,18.0,95,0.00,CLR,,0.24,WeatherDisplay:10.37,2013-04-10 22:40:00,
2013-04-10 17:45:00,41.3,40.0,29.84,NE,36,12.6,16.1,95,0.00,CLR,,0.24,WeatherDisplay:10.37,2013-04-10 22:45:00,
2013-04-10 17:50:00,41.3,40.0,29.84,NNE,13,11.2,13.8,95,0.00,CLR,,0.24,WeatherDisplay:10.37,2013-04-10 22:50:00,
2013-04-10 17:55:00,41.0,39.7,29.84,North,355,13.0,19.6,95,0.00,CLR,,0.24,WeatherDisplay:10.37,2013-04-10 22:55:00,
2013-04-10 18:00:00,41.0,39.7,29.84,NNE,30,11.3,12.7,95,0.00,CLR,,0.24,WeatherDisplay:10.37,2013-04-10 23:00:00,
2013-04-10 18:05:00,40.9,39.6,29.85,NNE,22,10.0,16.1,95,0.00,CLR,,0.24,WeatherDisplay:10.37,2013-04-10 23:05:00,
2013-04-10 18:10:00,40.9,39.6,29.87,NNE,17,11.9,18.4,95,0.00,CLR,,0.24,WeatherDisplay:10.37,2013-04-10 23:10:00,
2013-04-10 18:15:00,40.9,39.6,29.86,North,5,10.8,14.0,95,0.00,CLR,,0.24,WeatherDisplay:10.37,2013-04-10 23:15:00,
2013-04-10 18:20:00,40.8,39.5,29.86,NNE,30,11.2,17.3,95,0.00,CLR,,0.24,WeatherDisplay:10.37,2013-04-10 23:20:00,
2013-04-10 18:25:00,40.7,39.4,29.87,NE,44,9.0,12.7,95,0.00,CLR,,0.24,WeatherDisplay:10.37,2013-04-10 23:25:00,
2013-04-10 18:30:00,40.7,39.4,29.87,North,5,10.9,12.7,95,0.00,CLR,,0.24,WeatherDisplay:10.37,2013-04-10 23:30:00,
2013-04-10 18:35:00,40.7,39.4,29.85,NNE,22,8.7,13.8,95,0.00,CLR,,0.24,WeatherDisplay:10.37,2013-04-10 23:35:00,
2013-04-10 18:40:00,40.7,39.6,29.85,NE,36,10.9,17.3,96,0.00,CLR,,0.24,WeatherDisplay:10.37,2013-04-10 23:40:00,
2013-04-10 18:45:00,40.6,39.5,29.85,North,360,10.6,19.6,96,0.00,CLR,,0.24,WeatherDisplay:10.37,2013-04-10 23:45:00,
2013-04-10 18:50:00,40.6,39.5,29.84,NNE,14,11.4,16.1,96,0.00,CLR,,0.24,WeatherDisplay:10.37,2013-04-10 23:50:00,
2013-04-10 18:55:00,40.6,39.5,29.84,NNE,31,13.4,16.1,96,0.00,CLR,,0.24,WeatherDisplay:10.37,2013-04-10 23:55:00,
2013-04-10 19:00:00,40.4,39.1,29.84,NNE,15,11.4,15.0,95,0.00,CLR,,0.24,WeatherDisplay:10.37,2013-04-11 00:00:00,
2013-04-10 19:05:00,40.4,39.4,29.85,NNE,22,10.8,14.0,96,0.00,CLR,,0.24,WeatherDisplay:10.37,2013-04-11 00:05:00,
2013-04-10 19:10:00,40.4,39.4,29.84,North,11,9.4,13.8,96,0.00,CLR,,0.24,WeatherDisplay:10.37,2013-04-11 00:10:00,
2013-04-10 19:15:00,40.4,39.4,29.82,NNE,19,11.4,17.3,96,0.00,CLR,,0.24,WeatherDisplay:10.37,2013-04-11 00:15:00,
2013-04-10 19:20:00,40.4,39.4,29.82,NNW,344,14.5,16.1,96,0.00,CLR,,0.24,WeatherDisplay:10.37,2013-04-11 00:20:00,
2013-04-10 19:25:00,40.3,39.3,29.82,North,11,12.1,19.6,96,0.00,CLR,,0.24,WeatherDisplay:10.37,2013-04-11 00:25:00,
2013-04-10 19:30:00,40.3,39.3,29.82,NNE,32,10.7,16.1,96,0.00,CLR,,0.24,WeatherDisplay:10.37,2013-04-11 00:30:00,
2013-04-10 19:35:00,40.3,39.3,29.81,NNE,19,10.5,13.8,96,0.00,CLR,,0.24,WeatherDisplay:10.37,2013-04-11 00:35:00,
2013-04-10 19:40:00,40.3,39.3,29.81,NNE,23,10.8,15.0,96,0.00,CLR,,0.24,WeatherDisplay:10.37,2013-04-11 00:40:00,
2013-04-10 19:45:00,40.3,39.3,29.81,NNE,21,15.0,19.6,96,0.00,CLR,,0.24,WeatherDisplay:10.37,2013-04-11 00:45:00,
2013-04-10 19:50:00,40.2,39.2,29.81,NNE,17,10.2,15.0,96,0.00,CLR,,0.24,WeatherDisplay:10.37,2013-04-11 00:50:00,
2013-04-10 19:55:00,40.2,39.2,29.80,North,9,11.8,16.1,96,0.00,CLR,,0.24,WeatherDisplay:10.37,2013-04-11 00:55:00,
2013-04-10 20:00:00,40.1,39.1,29.80,NE,35,10.0,16.1,96,0.00,CLR,,0.24,WeatherDisplay:10.37,2013-04-11 01:00:00,
2013-04-10 20:05:00,40.2,39.2,29.80,NNE,24,8.9,13.8,96,0.00,CLR,,0.24,WeatherDisplay:10.37,2013-04-11 01:05:00,
2013-04-10 20:10:00,40.0,39.0,29.81,NNE,13,13.1,18.4,96,0.00,CLR,,0.24,WeatherDisplay:10.37,2013-04-11 01:10:00,
2013-04-10 20:15:00,40.0,39.0,29.82,NNE,19,11.0,18.4,96,0.00,CLR,,0.24,WeatherDisplay:10.37,2013-04-11 01:15:00,
2013-04-10 20:20:00,40.0,39.0,29.83,North,360,12.2,16.1,96,0.00,CLR,,0.24,WeatherDisplay:10.37,2013-04-11 01:20:00,
2013-04-10 20:25:00,40.0,39.0,29.84,NNE,19,8.3,10.4,96,0.01,RA,,0.25,WeatherDisplay:10.37,2013-04-11 01:25:00,
2013-04-10 20:30:00,40.0,39.0,29.85,NNE,18,9.4,13.0,96,0.02,RA,,0.26,WeatherDisplay:10.37,2013-04-11 01:30:00,
2013-04-10 20:35:00,40.0,39.0,29.86,North,360,5.3,8.1,96,0.02,RA,,0.26,WeatherDisplay:10.37,2013-04-11 01:35:00,
2013-04-10 20:40:00,40.0,39.0,29.87,NNE,15,5.8,9.0,96,0.03,RA,,0.27,WeatherDisplay:10.37,2013-04-11 01:40:00,
2013-04-10 20:45:00,40.0,39.0,29.87,NNE,28,5.4,9.2,96,0.04,RA,,0.28,WeatherDisplay:10.37,2013-04-11 01:45:00,
2013-04-10 20:50:00,40.0,39.0,29.87,NNE,23,7.1,9.2,96,0.06,RA,,0.30,WeatherDisplay:10.37,2013-04-11 01:50:00,
2013-04-10 20:55:00,40.1,39.1,29.87,NNE,26,7.2,9.2,96,0.06,RA,,0.31,WeatherDisplay:10.37,2013-04-11 01:55:00,
2013-04-10 21:00:00,40.1,39.1,29.85,NNE,26,7.1,9.2,96,0.08,RA,,0.32,WeatherDisplay:10.37,2013-04-11 02:00:00,
2013-04-10 21:05:00,40.1,39.1,29.84,NNE,19,7.1,11.0,96,0.09,RA,,0.33,WeatherDisplay:10.37,2013-04-11 02:05:00,
2013-04-10 21:10:00,40.0,39.2,29.84,North,355,7.7,11.5,97,0.10,RA,,0.34,WeatherDisplay:10.37,2013-04-11 02:10:00,
2013-04-10 21:15:00,40.0,39.2,29.83,NNE,17,10.8,12.7,97,0.11,RA,,0.35,WeatherDisplay:10.37,2013-04-11 02:15:00,
2013-04-10 21:20:00,40.0,39.2,29.83,NNW,342,9.4,12.7,97,0.12,RA,,0.36,WeatherDisplay:10.37,2013-04-11 02:20:00,
2013-04-10 21:25:00,40.0,39.2,29.83,North,10,10.5,15.0,97,0.12,RA,,0.37,WeatherDisplay:10.37,2013-04-11 02:25:00,
2013-04-10 21:30:00,40.0,39.2,29.82,North,5,12.8,17.0,97,0.12,RA,,0.38,WeatherDisplay:10.37,2013-04-11 02:30:00,
2013-04-10 21:35:00,40.0,39.2,29.80,North,360,18.4,23.0,97,0.12,RA,,0.38,WeatherDisplay:10.37,2013-04-11 02:35:00,
2013-04-10 21:40:00,40.0,39.2,29.80,North,360,16.9,19.6,97,0.12,RA,,0.39,WeatherDisplay:10.37,2013-04-11 02:40:00,
2013-04-10 21:45:00,40.0,39.2,29.81,North,5,15.5,20.7,97,0.12,RA,,0.40,WeatherDisplay:10.37,2013-04-11 02:45:00,
2013-04-10 21:50:00,40.0,39.2,29.81,NNE,27,12.9,26.5,97,0.11,RA,,0.42,WeatherDisplay:10.37,2013-04-11 02:50:00,
2013-04-10 21:55:00,40.0,39.2,29.83,NNE,16,9.1,13.0,97,0.12,RA,,0.43,WeatherDisplay:10.37,2013-04-11 02:55:00,
2013-04-10 22:00:00,40.0,39.2,29.84,NE,34,7.3,12.7,97,0.12,RA,,0.44,WeatherDisplay:10.37,2013-04-11 03:00:00,
2013-04-10 22:05:00,40.1,39.3,29.85,NNE,13,8.5,13.8,97,0.13,RA,,0.46,WeatherDisplay:10.37,2013-04-11 03:05:00,
2013-04-10 22:10:00,40.1,39.3,29.85,NNE,19,10.0,13.8,97,0.13,RA,,0.48,WeatherDisplay:10.37,2013-04-11 03:10:00,
2013-04-10 22:15:00,40.1,39.3,29.84,NNE,19,10.6,15.0,97,0.14,RA,,0.49,WeatherDisplay:10.37,2013-04-11 03:15:00,
2013-04-10 22:20:00,40.1,39.3,29.84,North,355,11.8,19.6,97,0.14,RA,,0.51,WeatherDisplay:10.37,2013-04-11 03:20:00,
2013-04-10 22:25:00,40.1,39.3,29.85,North,5,11.1,15.0,97,0.15,RA,,0.52,WeatherDisplay:10.37,2013-04-11 03:25:00,
2013-04-10 22:30:00,40.1,39.3,29.84,NNE,22,10.1,15.0,97,0.16,RA,,0.54,WeatherDisplay:10.37,2013-04-11 03:30:00,
2013-04-10 22:36:00,40.1,39.3,29.85,NNE,13,8.1,12.7,97,0.17,RA,,0.55,WeatherDisplay:10.37,2013-04-11 03:36:00,
2013-04-10 22:41:00,40.1,39.3,29.85,NNE,29,9.4,13.8,97,0.18,RA,,0.57,WeatherDisplay:10.37,2013-04-11 03:41:00,
2013-04-10 22:46:00,40.1,39.3,29.86,NNE,21,8.3,11.5,97,0.19,RA,,0.59,WeatherDisplay:10.37,2013-04-11 03:46:00,
2013-04-10 22:51:00,40.1,39.3,29.85,North,11,8.9,13.8,97,0.19,RA,,0.61,WeatherDisplay:10.37,2013-04-11 03:51:00,
2013-04-10 22:56:00,40.1,39.3,29.83,NNE,24,12.1,17.3,97,0.19,RA,,0.63,WeatherDisplay:10.37,2013-04-11 03:56:00,
2013-04-10 23:00:00,40.0,39.2,29.84,ENE,58,13.1,20.7,97,0.20,RA,,0.64,WeatherDisplay:10.37,2013-04-11 04:00:00,
2013-04-10 23:01:00,40.0,39.2,29.83,NE,46,13.7,24.2,97,0.21,RA,,0.65,WeatherDisplay:10.37,2013-04-11 04:01:00,
2013-04-10 23:06:00,40.0,39.2,29.84,North,9,9.6,16.0,97,0.20,RA,,0.66,WeatherDisplay:10.37,2013-04-11 04:06:00,
2013-04-10 23:11:00,39.9,39.1,29.83,NE,38,11.1,18.4,97,0.20,RA,,0.68,WeatherDisplay:10.37,2013-04-11 04:11:00,
2013-04-10 23:16:00,39.9,39.1,29.83,NNE,12,10.9,16.1,97,0.21,RA,,0.70,WeatherDisplay:10.37,2013-04-11 04:16:00,
2013-04-10 23:21:00,39.9,39.1,29.82,NE,37,12.9,19.6,97,0.21,RA,,0.72,WeatherDisplay:10.37,2013-04-11 04:21:00,
2013-04-10 23:27:00,39.8,39.0,29.82,NNE,26,11.0,17.3,97,0.22,RA,,0.75,WeatherDisplay:10.37,2013-04-11 04:27:00,
2013-04-10 23:32:00,39.7,38.9,29.82,NE,40,11.3,16.1,97,0.23,RA,,0.77,WeatherDisplay:10.37,2013-04-11 04:32:00,
2013-04-10 23:37:00,39.7,38.9,29.80,NNE,30,15.1,23.0,97,0.23,RA,,0.78,WeatherDisplay:10.37,2013-04-11 04:37:00,
2013-04-10 23:42:00,39.7,38.9,29.81,NE,40,11.0,13.8,97,0.22,RA,,0.80,WeatherDisplay:10.37,2013-04-11 04:42:00,
2013-04-10 23:47:00,39.7,38.9,29.80,North,11,12.2,17.3,97,0.20,RA,,0.80,WeatherDisplay:10.37,2013-04-11 04:47:00,
2013-04-10 23:52:00,39.7,38.9,29.80,NNE,13,14.7,19.6,97,0.21,RA,,0.82,WeatherDisplay:10.37,2013-04-11 04:52:00,
2013-04-10 23:57:00,39.6,38.8,29.79,NNW,347,13.5,19.0,97,0.20,RA,,0.83,WeatherDisplay:10.37,2013-04-11 04:57:00,